DW8404 Weather Reports


time (UTC)temp
F
wind
direction
speed
knots
gust
knots
rain 1hr
in
rain 24hr
in
rain mn
in
humidity
%
barometer
mb
20260906052503 83 0 0.0 0.0 0.00 0.00 0.00 82 1013.0
20260906052003 83 0 0.0 0.0 0.00 0.00 0.00 81 1013.0
20260906051503 83 0 0.0 0.0 0.00 0.00 0.00 81 1012.9
20260906051003 84 0 0.0 0.0 0.00 0.00 0.00 81 1013.0
20260906050503 84 0 0.0 0.0 0.00 0.00 0.00 81 1013.0
20260906050251 84 0 0.0 0.0 0.00 0.00 0.00 81 1013.0
20260906045713 84 0 0.0 0.0 0.00 0.00 0.00 80 1012.8
20260906045003 84 0 0.0 0.0 0.00 0.00 0.00 80 1012.7
20260906044714 84 0 0.0 0.0 0.00 0.00 0.00 79 1012.8
20260906044217 84 0 0.0 0.0 0.00 0.00 0.00 79 1012.7
20260906043503 84 0 0.0 0.0 0.00 0.00 0.00 79 1012.7
20260906043003 84 0 0.0 0.0 0.00 0.00 0.00 79 1012.7
20260906042716 84 0 0.0 0.0 0.00 0.00 0.00 79 1012.6
20260906042003 84 0 0.0 0.0 0.00 0.00 0.00 79 1012.5
20260906041503 84 0 0.0 0.0 0.00 0.00 0.00 79 1012.4
20260906041215 84 0 0.0 0.0 0.00 0.00 0.00 78 1012.4
20260906040503 85 0 0.0 0.0 0.00 0.00 0.00 78 1012.3
20260906040003 85 0 0.0 0.0 0.00 0.00 0.00 78 1012.3
20260906035714 85 0 0.0 0.0 0.00 0.00 0.00 77 1012.2
20260906035217 85 0 0.0 0.0 0.00 0.00 0.00 77 1012.2
20260906034503 85 0 0.0 0.0 0.00 0.00 0.00 77 1012.4
20260906034213 85 0 0.0 0.0 0.00 0.00 0.00 77 1012.4
20260906033503 86 0 0.0 0.0 0.00 0.00 0.00 76 1012.3
20260906033215 86 0 0.0 0.0 0.00 0.00 0.00 76 1012.3
20260906032717 86 0 0.0 0.0 0.00 0.00 0.00 76 1012.3
20260906032003 86 0 0.0 0.0 0.00 0.00 0.00 75 1012.2
20260906031713 86 0 0.0 0.0 0.00 0.00 0.00 75 1012.1
20260906031216 86 0 0.0 0.0 0.00 0.00 0.00 74 1012.0
20260906030503 86 0 0.0 0.0 0.00 0.00 0.00 75 1011.9
20260906030217 86 0 0.0 0.0 0.00 0.00 0.00 75 1011.9
20260906025503 86 0 0.0 0.0 0.00 0.00 0.00 75 1011.9
20260906025003 86 0 0.0 0.0 0.00 0.00 0.00 75 1011.8
20260906024504 86 0 0.0 0.0 0.00 0.00 0.00 74 1011.7
20260906024214 86 0 0.0 0.0 0.00 0.00 0.00 74 1011.7
20260906023503 86 0 0.0 0.0 0.00 0.00 0.00 75 1011.7
20260906023214 86 0 0.0 0.0 0.00 0.00 0.00 75 1011.6
20260906022503 86 0 0.0 0.0 0.00 0.00 0.00 75 1011.5
20260906022215 86 0 0.0 0.0 0.00 0.00 0.00 75 1011.6
20260906021503 86 0 0.0 0.0 0.00 0.00 0.00 77 1011.5
20260906021216 86 0 0.0 0.0 0.00 0.00 0.00 77 1011.5
20260906020714 86 0 0.0 0.0 0.00 0.00 0.00 79 1011.3
20260906020217 85 0 0.0 0.0 0.00 0.00 0.00 79 1011.3
20260906015715 85 0 0.0 0.0 0.00 0.00 0.00 80 1011.3
20260906015213 85 0 0.0 0.0 0.00 0.00 0.00 81 1011.2
20260906014716 85 0 0.0 0.0 0.00 0.00 0.00 81 1011.1
20260906014004 86 0 0.0 0.0 0.00 0.00 0.00 83 1011.0
20260906013503 86 0 0.0 0.0 0.00 0.00 0.00 80 1011.0
20260906013003 86 0 0.0 0.0 0.00 0.00 0.00 78 1010.9
20260906012713 86 0 0.0 0.0 0.00 0.00 0.00 78 1010.9
20260906012216 87 0 0.0 0.0 0.00 0.00 0.00 78 1010.8
20260906011714 88 0 0.0 0.0 0.00 0.00 0.00 78 1010.7
20260906011217 88 0 0.0 0.0 0.00 0.00 0.00 79 1010.7
20260906010715 88 0 0.0 0.0 0.00 0.00 0.00 76 1010.7
20260906010213 89 0 0.0 0.0 0.00 0.00 0.00 75 1010.6
20260906005503 89 0 0.0 0.0 0.00 0.00 0.00 73 1010.6
20260906005214 89 0 0.0 0.0 0.00 0.00 0.00 72 1010.5
20260906004503 90 0 0.0 0.0 0.00 0.00 0.00 71 1010.4
20260906004215 90 0 0.0 0.0 0.00 0.00 0.00 70 1010.4
20260906003713 90 0 0.0 0.0 0.00 0.00 0.00 70 1010.4
20260906003216 90 0 0.0 0.0 0.00 0.00 0.00 69 1010.4
20260906002714 90 0 0.0 0.0 0.00 0.00 0.00 69 1010.4
20260906002217 90 0 0.0 0.0 0.00 0.00 0.00 69 1010.4
20260906001503 91 0 0.0 0.0 0.00 0.00 0.00 69 1010.5
20260906001212 91 0 0.0 0.0 0.00 0.00 0.00 68 1010.6
20260906000503 91 0 0.0 0.0 0.00 0.00 0.00 69 1010.6
20260906000213 91 0 0.0 0.0 0.00 0.00 0.00 69 1010.6
20260905235716 92 0 0.0 0.0 0.00 0.00 0.00 70 1010.6
20260905235003 92 0 0.0 0.0 0.00 0.00 0.00 69 1010.6
20260905234712 92 0 0.0 0.0 0.00 0.00 0.00 69 1010.6
20260905234003 92 0 0.0 0.0 0.00 0.00 0.00 68 1010.5
20260905233713 92 0 0.0 0.0 0.00 0.00 0.00 68 1010.6
20260905233003 92 0 0.0 0.0 0.00 0.00 0.00 68 1010.7
20260905232714 92 0 0.0 0.0 0.00 0.00 0.00 67 1010.6
20260905232003 94 0 0.0 0.0 0.00 0.00 0.00 66 1010.6
20260905231503 94 0 0.0 0.0 0.00 0.00 0.00 63 1010.5
20260905231213 94 0 0.0 0.0 0.00 0.00 0.00 63 1010.5
20260905230503 94 0 0.0 0.0 0.00 0.00 0.00 63 1010.4
20260905230214 94 0 0.0 0.0 0.00 0.00 0.00 64 1010.4
20260905225505 94 0 0.0 0.0 0.00 0.00 0.00 64 1010.4
20260905225003 94 0 0.0 0.0 0.00 0.00 0.00 62 1010.5
20260905224713 93 0 0.0 0.0 0.00 0.00 0.00 61 1010.5
20260905224216 94 0 0.0 0.0 0.00 0.00 0.00 63 1010.5
20260905223503 94 0 0.0 0.0 0.00 0.00 0.00 59 1010.5
20260905223217 94 0 0.0 0.0 0.00 0.00 0.00 59 1010.4
20260905222503 94 0 0.0 0.0 0.00 0.00 0.00 57 1010.4
20260905222003 95 0 0.0 0.0 0.00 0.00 0.00 58 1010.3
20260905221503 95 0 0.0 0.0 0.00 0.00 0.00 56 1010.4
20260905221003 95 0 0.0 0.0 0.00 0.00 0.00 55 1010.4
20260905220717 95 0 0.0 0.0 0.00 0.00 0.00 55 1010.3
20260905220215 95 0 0.0 0.0 0.00 0.00 0.00 54 1010.4
20260905215503 96 0 0.0 0.0 0.00 0.00 0.00 53 1010.4
20260905215216 96 0 0.0 0.0 0.00 0.00 0.00 52 1010.4
20260905214714 96 0 0.0 0.0 0.00 0.00 0.00 52 1010.4
20260905214003 97 0 0.0 0.0 0.00 0.00 0.00 51 1010.4
20260905213715 97 0 0.0 0.0 0.00 0.00 0.00 50 1010.3
20260905213212 97 0 0.0 0.0 0.00 0.00 0.00 48 1010.3
20260905212503 98 0 0.0 0.0 0.00 0.00 0.00 47 1010.3
20260905212003 98 0 0.0 0.0 0.00 0.00 0.00 47 1010.4
20260905211503 98 0 0.0 0.0 0.00 0.00 0.00 47 1010.3
20260905211214 99 0 0.0 0.0 0.00 0.00 0.00 46 1010.3
20260905210503 98 0 0.0 0.0 0.00 0.00 0.00 48 1010.5
20260905210003 98 0 0.0 0.0 0.00 0.00 0.00 48 1010.6
20260905205503 98 0 0.0 0.0 0.00 0.00 0.00 49 1010.7
20260905205003 98 0 0.0 0.0 0.00 0.00 0.00 50 1010.7
20260905204503 97 0 0.0 0.0 0.00 0.00 0.00 49 1010.8
20260905204003 96 0 0.0 0.0 0.00 0.00 0.00 52 1010.8
20260905203715 96 0 0.0 0.0 0.00 0.00 0.00 51 1010.8
20260905203003 96 0 0.0 0.0 0.00 0.00 0.00 54 1010.8
20260905202716 95 0 0.0 0.0 0.00 0.00 0.00 54 1010.7
20260905202003 94 0 0.0 0.0 0.00 0.00 0.00 55 1010.9
20260905201717 94 0 0.0 0.0 0.00 0.00 0.00 54 1010.9
20260905201003 93 0 0.0 0.0 0.00 0.00 0.00 55 1011.1
20260905200713 93 0 0.0 0.0 0.00 0.00 0.00 55 1011.2
20260905200216 93 0 0.0 0.0 0.00 0.00 0.00 56 1011.2
20260905195714 93 0 0.0 0.0 0.00 0.00 0.00 56 1011.3
20260905195217 94 0 0.0 0.0 0.00 0.00 0.00 54 1011.3
20260905194503 95 0 0.0 0.0 0.00 0.00 0.00 53 1011.4
20260905194003 96 0 0.0 0.0 0.00 0.00 0.00 50 1011.4
20260905193716 96 0 0.0 0.0 0.00 0.00 0.00 50 1011.5
20260905193003 97 0 0.0 0.0 0.00 0.00 0.00 48 1011.5
20260905192717 98 0 0.0 0.0 0.00 0.00 0.00 47 1011.4
20260905192003 98 0 0.0 0.0 0.00 0.00 0.00 45 1011.4
20260905191503 99 0 0.0 0.0 0.00 0.00 0.00 45 1011.6
20260905191003 99 0 0.0 0.0 0.00 0.00 0.00 44 1011.5
20260905190504 99 0 0.0 0.0 0.00 0.00 0.00 44 1011.5
20260905190003 99 0 0.0 0.0 0.00 0.00 0.00 45 1011.5
20260905185715 99 0 0.0 0.0 0.00 0.00 0.00 46 1011.6
20260905185212 98 0 0.0 0.0 0.00 0.00 0.00 44 1011.6
20260905184503 98 0 0.0 0.0 0.00 0.00 0.00 45 1011.8
20260905184213 98 0 0.0 0.0 0.00 0.00 0.00 45 1011.7
20260905183503 98 0 0.0 0.0 0.00 0.00 0.00 47 1011.9
20260905183215 97 0 0.0 0.0 0.00 0.00 0.00 48 1011.9
20260905182718 97 0 0.0 0.0 0.00 0.00 0.00 49 1012.0
20260905182004 97 0 0.0 0.0 0.00 0.00 0.00 50 1012.1
20260905181713 97 0 0.0 0.0 0.00 0.00 0.00 50 1012.1
20260905181003 97 0 0.0 0.0 0.00 0.00 0.00 51 1012.2
20260905180503 96 0 0.0 0.0 0.00 0.00 0.00 51 1012.2
20260905180217 96 0 0.0 0.0 0.00 0.00 0.00 54 1012.3
20260905175503 96 0 0.0 0.0 0.00 0.00 0.00 53 1012.3
20260905175003 96 0 0.0 0.0 0.00 0.00 0.00 54 1012.3
20260905174716 96 0 0.0 0.0 0.00 0.00 0.00 54 1012.4
20260905174214 96 0 0.0 0.0 0.00 0.00 0.00 55 1012.4
20260905173503 95 0 0.0 0.0 0.00 0.00 0.00 55 1012.4
20260905173003 95 0 0.0 0.0 0.00 0.00 0.00 56 1012.3
20260905172504 95 0 0.0 0.0 0.00 0.00 0.00 56 1012.4
20260905172216 95 0 0.0 0.0 0.00 0.00 0.00 57 1012.3
20260905171714 95 0 0.0 0.0 0.00 0.00 0.00 57 1012.5
20260905171003 94 0 0.0 0.0 0.00 0.00 0.00 58 1012.5
20260905170503 94 0 0.0 0.0 0.00 0.00 0.00 58 1012.7
20260905170004 94 0 0.0 0.0 0.00 0.00 0.00 58 1012.7
20260905165716 94 0 0.0 0.0 0.00 0.00 0.00 58 1012.7
20260905165003 93 0 0.0 0.0 0.00 0.00 0.00 61 1012.9
20260905164503 93 0 0.0 0.0 0.00 0.00 0.00 60 1013.0
20260905164215 93 0 0.0 0.0 0.00 0.00 0.00 60 1013.0
20260905163713 93 0 0.0 0.0 0.00 0.00 0.00 60 1013.0
20260905163216 93 0 0.0 0.0 0.00 0.00 0.00 62 1013.0
20260905162503 92 0 0.0 0.0 0.00 0.00 0.00 62 1013.1
20260905162217 92 0 0.0 0.0 0.00 0.00 0.00 62 1013.2
20260905161715 92 0 0.0 0.0 0.00 0.00 0.00 63 1013.2
20260905161003 91 0 0.0 0.0 0.00 0.00 0.00 64 1013.2
20260905160503 91 0 0.0 0.0 0.00 0.00 0.00 64 1013.2
20260905160213 90 0 0.0 0.0 0.00 0.00 0.00 65 1013.2
20260905155716 90 0 0.0 0.0 0.00 0.00 0.00 65 1013.3
20260905155003 90 0 0.0 0.0 0.00 0.00 0.00 64 1013.3
20260905154503 90 0 0.0 0.0 0.00 0.00 0.00 64 1013.3
20260905154215 90 0 0.0 0.0 0.00 0.00 0.00 64 1013.2
20260905153713 90 0 0.0 0.0 0.00 0.00 0.00 64 1013.1
20260905153216 89 0 0.0 0.0 0.00 0.00 0.00 65 1013.2
20260905152503 89 0 0.0 0.0 0.00 0.00 0.00 65 1013.3
20260905152217 89 0 0.0 0.0 0.00 0.00 0.00 66 1013.4
20260905151715 88 0 0.0 0.0 0.00 0.00 0.00 67 1013.3
20260905151213 88 0 0.0 0.0 0.00 0.00 0.00 68 1013.3
20260905150503 88 0 0.0 0.0 0.00 0.00 0.00 68 1013.2
20260905150214 87 0 0.0 0.0 0.00 0.00 0.00 70 1013.2
20260905145717 87 0 0.0 0.0 0.00 0.00 0.00 70 1013.2
20260905145215 87 0 0.0 0.0 0.00 0.00 0.00 71 1013.2
20260905144503 86 0 0.0 0.0 0.00 0.00 0.00 72 1013.0
20260905144216 86 0 0.0 0.0 0.00 0.00 0.00 72 1013.0
20260905143503 86 0 0.0 0.0 0.00 0.00 0.00 73 1013.1
20260905143003 85 0 0.0 0.0 0.00 0.00 0.00 74 1013.0
20260905142503 85 0 0.0 0.0 0.00 0.00 0.00 75 1013.1
20260905142213 85 0 0.0 0.0 0.00 0.00 0.00 75 1013.1
20260905141503 84 0 0.0 0.0 0.00 0.00 0.00 76 1013.0
20260905141214 84 0 0.0 0.0 0.00 0.00 0.00 77 1013.0
20260905140503 84 0 0.0 0.0 0.00 0.00 0.00 77 1013.1
20260905140215 84 0 0.0 0.0 0.00 0.00 0.00 77 1013.0
20260905135503 84 0 0.0 0.0 0.00 0.00 0.00 78 1013.1
20260905135216 84 0 0.0 0.0 0.00 0.00 0.00 79 1013.0
20260905134714 83 0 0.0 0.0 0.00 0.00 0.00 82 1013.1
20260905134003 83 0 0.0 0.0 0.00 0.00 0.00 83 1013.1
20260905133503 83 0 0.0 0.0 0.00 0.00 0.00 82 1013.0
20260905133212 83 0 0.0 0.0 0.00 0.00 0.00 81 1013.0
20260905132503 83 0 0.0 0.0 0.00 0.00 0.00 80 1013.0
20260905132213 83 0 0.0 0.0 0.00 0.00 0.00 81 1012.9
20260905131503 83 0 0.0 0.0 0.00 0.00 0.00 82 1013.0
20260905131214 83 0 0.0 0.0 0.00 0.00 0.00 83 1013.0
20260905130503 82 0 0.0 0.0 0.00 0.00 0.00 84 1013.0
20260905130215 82 0 0.0 0.0 0.00 0.00 0.00 85 1013.0
20260905125713 82 0 0.0 0.0 0.00 0.00 0.00 85 1012.8
20260905125216 81 0 0.0 0.0 0.00 0.00 0.00 86 1012.7
20260905124503 79 0 0.0 0.0 0.00 0.00 0.00 91 1012.7
20260905124212 79 0 0.0 0.0 0.00 0.00 0.00 91 1012.6
20260905123503 79 0 0.0 0.0 0.00 0.00 0.00 91 1012.6
20260905123003 79 0 0.0 0.0 0.00 0.00 0.00 91 1012.7
20260905122503 79 0 0.0 0.0 0.00 0.00 0.00 91 1012.6
20260905122003 79 0 0.0 0.0 0.00 0.00 0.00 91 1012.5
20260905121503 79 0 0.0 0.0 0.00 0.00 0.00 91 1012.5
20260905121215 79 0 0.0 0.0 0.00 0.00 0.00 91 1012.4
20260905120503 79 0 0.0 0.0 0.00 0.00 0.00 91 1012.4
20260905120216 79 0 0.0 0.0 0.00 0.00 0.00 91 1012.4
20260905115714 79 0 0.0 0.0 0.00 0.00 0.00 91 1012.3
20260905115217 79 0 0.0 0.0 0.00 0.00 0.00 91 1012.2
20260905114503 79 0 0.0 0.0 0.00 0.00 0.00 91 1012.2
20260905114003 79 0 0.0 0.0 0.00 0.00 0.00 91 1012.2
20260905113503 79 0 0.0 0.0 0.00 0.00 0.00 91 1012.1
20260905113003 79 0 0.0 0.0 0.00 0.00 0.00 91 1012.0
20260905112503 79 0 0.0 0.0 0.00 0.00 0.00 91 1011.9
20260905112003 79 0 0.0 0.0 0.00 0.00 0.00 91 1012.0
20260905111713 79 0 0.0 0.0 0.00 0.00 0.00 91 1011.9
20260905111216 79 0 0.0 0.0 0.00 0.00 0.00 91 1011.9
20260905110714 79 0 0.0 0.0 0.00 0.00 0.00 91 1011.9
20260905110003 79 0 0.0 0.0 0.00 0.00 0.00 91 1011.8
20260905105504 79 0 0.0 0.0 0.00 0.00 0.00 91 1011.9
20260905105003 79 0 0.0 0.0 0.00 0.00 0.00 91 1011.8
20260905104716 79 0 0.0 0.0 0.00 0.00 0.00 91 1011.8
20260905104004 79 0 0.0 0.0 0.00 0.00 0.00 91 1011.8
20260905103716 79 0 0.0 0.0 0.00 0.00 0.00 91 1011.8
20260905103003 79 0 0.0 0.0 0.00 0.00 0.00 91 1011.8
20260905102503 79 0 0.0 0.0 0.00 0.00 0.00 91 1011.9
20260905102215 79 0 0.0 0.0 0.00 0.00 0.00 91 1011.9
20260905101713 79 0 0.0 0.0 0.00 0.00 0.00 91 1011.9
20260905101216 79 0 0.0 0.0 0.00 0.00 0.00 90 1012.0
20260905100503 78 0 0.0 0.0 0.00 0.00 0.00 90 1012.0
20260905100217 78 0 0.0 0.0 0.00 0.00 0.00 89 1012.0
20260905095715 78 0 0.0 0.0 0.00 0.00 0.00 89 1012.0
20260905095213 78 0 0.0 0.0 0.00 0.00 0.00 89 1011.9
20260905094503 78 0 0.0 0.0 0.00 0.00 0.00 89 1011.9
20260905094214 78 0 0.0 0.0 0.00 0.00 0.00 89 1011.9
20260905093717 78 0 0.0 0.0 0.00 0.00 0.00 89 1011.9
20260905093215 78 0 0.0 0.0 0.00 0.00 0.00 89 1012.0
20260905092503 78 0 0.0 0.0 0.00 0.00 0.00 90 1012.0
20260905092216 78 0 0.0 0.0 0.00 0.00 0.00 90 1012.0
20260905091503 78 0 0.0 0.0 0.00 0.00 0.00 90 1012.1
20260905091003 78 0 0.0 0.0 0.00 0.00 0.00 89 1012.1
20260905090715 78 0 0.0 0.0 0.00 0.00 0.00 89 1012.0
20260905090213 78 0 0.0 0.0 0.00 0.00 0.00 89 1012.0
20260905085716 78 0 0.0 0.0 0.00 0.00 0.00 89 1012.0
20260905085214 78 0 0.0 0.0 0.00 0.00 0.00 88 1012.0
20260905084503 78 0 0.0 0.0 0.00 0.00 0.00 88 1012.0
20260905084215 78 0 0.0 0.0 0.00 0.00 0.00 88 1012.1
20260905083713 78 0 0.0 0.0 0.00 0.00 0.00 88 1012.1
20260905083216 79 0 0.0 0.0 0.00 0.00 0.00 87 1012.2
20260905082714 79 0 0.0 0.0 0.00 0.00 0.00 88 1012.1
20260905082217 79 0 0.0 0.0 0.00 0.00 0.00 88 1012.1
20260905081503 79 0 0.0 0.0 0.00 0.00 0.00 88 1012.1
20260905081212 79 0 0.0 0.0 0.00 0.00 0.00 87 1012.2
20260905080503 80 0 0.0 0.0 0.00 0.00 0.00 88 1012.2
20260905080213 80 0 0.0 0.0 0.00 0.00 0.00 88 1012.2
20260905075716 79 0 0.0 0.0 0.00 0.00 0.00 88 1012.3
20260905075003 79 0 0.0 0.0 0.00 0.00 0.00 87 1012.3
20260905074717 80 0 0.0 0.0 0.00 0.00 0.00 87 1012.3
20260905074215 80 0 0.0 0.0 0.00 0.00 0.00 87 1012.3
20260905073503 80 0 0.0 0.0 0.00 0.00 0.00 87 1012.3
20260905073003 79 0 0.0 0.0 0.00 0.00 0.00 86 1012.4
20260905072714 79 0 0.0 0.0 0.00 0.00 0.00 86 1012.4
20260905072003 79 0 0.0 0.0 0.00 0.00 0.00 87 1012.4
20260905071715 79 0 0.0 0.0 0.00 0.00 0.00 88 1012.4
20260905071213 79 0 0.0 0.0 0.00 0.00 0.00 88 1012.5
20260905070716 80 0 0.0 0.0 0.00 0.00 0.00 88 1012.4
20260905070004 79 0 0.0 0.0 0.00 0.00 0.00 88 1012.4
20260905065503 80 0 0.0 0.0 0.00 0.00 0.00 88 1012.4
20260905065215 79 0 0.0 0.0 0.00 0.00 0.00 88 1012.4
20260905064503 79 0 0.0 0.0 0.00 0.00 0.00 88 1012.3
20260905064216 79 0 0.0 0.0 0.00 0.00 0.00 87 1012.3
20260905063714 79 0 0.0 0.0 0.00 0.00 0.00 87 1012.4
20260905063003 79 0 0.0 0.0 0.00 0.00 0.00 88 1012.5
20260905062503 79 0 0.0 0.0 0.00 0.00 0.00 88 1012.5
20260905062003 79 0 0.0 0.0 0.00 0.00 0.00 89 1012.5
20260905061503 79 0 0.0 0.0 0.00 0.00 0.00 88 1012.5
20260905061214 79 0 0.0 0.0 0.00 0.00 0.00 89 1012.5
20260905060717 79 0 0.0 0.0 0.00 0.00 0.00 88 1012.6
20260905060215 80 0 0.0 0.0 0.00 0.00 0.00 88 1012.6
20260905055503 80 0 0.0 0.0 0.00 0.00 0.00 88 1012.7
20260905055216 80 0 0.0 0.0 0.00 0.00 0.00 88 1012.6
20260905054503 81 0 0.0 0.0 0.00 0.00 0.00 88 1012.7
20260905054217 81 0 0.0 0.0 0.00 0.00 0.00 88 1012.7
20260905053715 81 0 0.0 0.0 0.00 0.00 0.00 89 1012.7
20260905053213 81 0 0.0 0.0 0.00 0.00 0.00 89 1012.6